Погода в Шарковщине

Погода в Шарковщине : погода сейчас, прогноз погоды и архив. Всё, что Вы хотите узнать о погоде в Шарковщине!

Хотите узнать прогноз погоды в Шарковщине? Тогда Вам сюда: Погода в Шарковщине

Поиск расширенной информации на нашем сайте:

Другие новости

Новости СМИ2

Главная страница сайта

Новости сайта

03.07.2017

Напоминаем, что на нашем специализированном сайте Метеоцентр.Азия вы можете получить высокодетализированные автоматические прогнозы погоды по пунктам России, СНГ и мира в авиационном формате (включающие направление и скорость ветра, видимость, явления погоды, количество и форму облачности, нижнюю и верхнюю границу облачности).


Погода в Шарковщине - сегодня

Время (UTC), дата Ветер
(°,м/с) 
Видим.   Явления Облачность Т
(°С)
Тd
(°С)
f(%) Тe
(°С)
Pmin
(гПа)
dP
(гПа)
Po
(мм)
O2
(г/м3)
Тmin Tmax R s Состояние
почвы
06 18.10.17 250 (З) 4{10}  17000 м    9/9 600 м 
[Sc]
+12.1 +9.3 83 +12  1010.1  -0.8  746  286  +11.2         
09 18.10.17 290 (З) 4{11}  25000 м    10/8 600 м средняя 
[Cu med, cong|As op]
+12.6 +8.1 74 +12  1010.5  0.4  746  286           
12 18.10.17 300 (СЗ) 5-11{11}  30000 м    9/9 600 м 
[Sc]
+13 +7.3 68 +12  1011  0.5  747  286           
15 18.10.17 270 (З) 3{11}  25000 м    9/9 600 м 
[Sc]
+12 +8 76 +12  1011.6  0.4  747  287           
18 18.10.17 300 (СЗ) 21000 м    9/9 600 м 
[Sc]
+11.8 +8.5 80 +12  1012.4  0.7  748  287    +14.6       
00 19.10.17 тихо ()   13000 м  {дождь}  3/3 600 м 
[Sc]
+5.1 +4.6 97 +5  1016.5  1.9  750  296           
06 19.10.17 тихо ()   1500 м  дымка{туман}  8/0 средняя, верхняя 
[Ac As|Cc]
+2.6 +2.6 100 +3  1018.7  752  300  +2.4    0.7     
09 19.10.17 350 (С) 20000 м    3/1 600 м средняя 
[Cu med, cong|Ac trans]
+8.8 +6.2 84 +10  1019.8  1.4  753  293           
12 19.10.17 020 (С) 20000 м    6/5 600 м верхняя 
[Cu med, cong|Ci fib]
+10.9 +3.6 61 +12  1020.1  0.4  753  291           
15 19.10.17 тихо ()   16000 м    3/3 600 м 
[Sc diur, vesp]
+9.6 +4.6 71 +10  1020.2  753  292           
18 19.10.17 250 (З) 8000 м  дымка  ясно 
+3.7 +3.2 97 +5  1021.4  0.9  754  299    +11.8       
21 19.10.17 230 (ЮЗ) 8000 м  дымка  ясно 
+1.4 +0.9 96 +2  1022.6  755  302           
00 20.10.17 тихо ()   1900 м  дымка  ясно 
-0.1 -0.4 98 -0  1023  0.3  755  304           
06 20.10.17 280 (З) 0400 м  переохл. туман [диам. гололёда 1 мм]  ?/?  
-0.7 -0.7 100 1024.3  0.9  756  305  -1.2         
09 20.10.17 тихо ()   13000 м  {туман}  6/4 600 м средняя 
[Cu med, cong|Ac trans]
+4.4 +3.7 95 +4  1024.5  0.6  756  299           
12 20.10.17 200 (Ю) 20000 м  {туман}  9/4 600 м средняя, верхняя 
[Cu med, cong|Ac trans|Ci fib]
+10.3 +4 65 +11  1023  -1.1  755  293           
15 20.10.17 тихо ()   20000 м    9/4 600 м средняя, верхняя 
[Cu hum|Ac trans|Ci fib]
+8.6 +6.4 86 +9  1022.7  -0.4  755  294           
18 20.10.17 090 (В) 13000 м    8/5 600 м средняя, верхняя 
[Cu med, cong|Ac trans|Ci fib]
+5.4 +4.5 94 +6  1023.1  0.2  755  298    +11       
21 20.10.17 080 (В) 15000 м    9/9 600 м 
[Sc]
+5.5 +3.8 89 +6  1022.9  -0.2  755  298           
00 21.10.17 070 (В) 16000 м    9/9 600 м 
[Sc]
+4.7 +2.7 87 +4  1022.4  -0.6  755  298           
03 21.10.17 080 (В) 16000 м    9/9 600 м 
[Sc]
+4.2 +2.5 89 +5  1021.9  -0.5  754  299           
06 21.10.17 080 (В) 18000 м    9/9 600 м 
[Sc]
+3.4 +1.3 86 +4  1021.7  -0.3  754  300  +3.2         
09 21.10.17 080 (В) 20000 м    9/6 600 м средняя 
[Sc|Ac As]
+3.9 +1.3 83 +3  1021.5  -0.1  754  299           
12 21.10.17 050 (СВ) 21000 м    6/4 600 м верхняя 
[Cu Sc|Ci fib]
+7.5 +1.9 68 +8  1020.1  -1.2  753  295           
15 21.10.17 050 (СВ) 22000 м    ясно 
+6.2 +0.3 66 +7  1020  -0.2  753  297           
Время (UTC), дата Ветер
(°,м/с) 
Видим.   Явления Облачность Т
(°С)
Тd
(°С)
f(%) Тe
(°С)
Pmin
(гПа)
dP
(гПа)
Po
(мм)
O2
(г/м3)
Тmin Tmax R s Состояние
почвы

Для получения пояснительной информации подведите курсор к названию столбца.

ПОГОДА в Шарковщине - архив

Всё, что Вы хотите узнать о погоде в Шарковщине - удобно и подробно!

Выберите нужную дату (начиная с 1 января 2015* года) и нажмите кнопку "Найти".
Будут отображены архивные сводки погоды по пункту Шарковщина, начиная с указанной даты.


Отображать данные в формате CSV (для использования в таблицах Excel)


Внимание! Наш архив погоды предназначен исключительно для личного некоммерческого использования в познавательных целях. Если Вам необходимы официальные справки о состоянии погоды (для производственных, юридических, коммерческих и т.п. целей), обращайтесь в органы Росгидромета.

*Примечание: данная дата относится к архиву по метеостанциям СССР (Россия, СНГ, Балтия).
Архив по метеостанциям Зарубежной Европы и Азии (кроме Китая) хранится 10 дней, по другим регионам земного шара (Китай, Африка, Америка, Австралия, Океания) - 1 день.

Шарковщина - район местоположения метеостанции


Название, широта, долгота, высота метеостанции:
Шарковщина 55.4°ш. 27.5°д. 131 м над ур. моря [Беларусь]

Дополнительная информация

В oтличие oт бoльшинства пoгoдных сайтoв мы публикуем пoдрoбную метеoинфoрмацию в детальнoм прoфессиoнальнoм фoрмате.

Характеристики температуры и влажнoсти вoздуха измеряются на высoте 2 м в тени вдали oт зданий и деревьев.
Скoрoсть ветра измеряется на высoте 10 м (на урoвне рoста челoвека скoрoсть ветра ниже в 1.5-2 раза). Если метеoстанция нахoдится в гoрoде или в лесу, тo скoрoсть ветра занижена на 2-4 м/с пo сравнению с oткрытым местoм. Скoрoсть ветра над акватoриями крупных рек и oзёр, а также на вершинах хoлмoв на 2-5 м/с выше, чем в oбычных услoвиях.
Атмoсфернoе давление в разных тoчках местнoсти мoжет значительнo oтличаться oт давления на метеoстанции, в зависимoсти oт услoвий рельефа (при пoдъёме на 10 м давление пoнижается примернo на 1 мм рт.ст.).